EW9945 Weather Reports


time (UTC)temp
C
wind
direction
speed
KPH
gust
KPH
rain 1hr
cm
rain 24hr
cm
rain mn
cm
humidity
%
barometer
mb
20260904133047 22 348 0.0 14.5 0.00 0.00 0.00 82 1013.2
20260904131604 21 307 4.8 9.7 0.00 0.00 0.00 83 1013.2
20260904130045 21 300 4.8 8.0 0.00 0.00 0.00 83 1013.1
20260904124544 21 319 0.0 8.0 0.00 0.00 0.00 86 1013.3
20260904123053 20 319 1.6 8.0 0.00 0.00 0.00 90 1013.4
20260904121536 20 319 0.0 4.8 0.00 0.00 0.00 92 1013.4
20260904120035 20 319 0.0 0.0 0.00 0.00 0.00 93 1013.3
20260904114542 18 319 0.0 0.0 0.00 0.00 0.00 93 1013.4
20260904113033 18 319 0.0 0.0 0.00 0.00 0.00 92 1013.3
20260904111534 18 319 0.0 0.0 0.00 0.00 0.00 92 1013.3
20260904110035 18 319 0.0 0.0 0.00 0.03 0.00 92 1013.3
20260904104528 18 319 0.0 0.0 0.00 0.03 0.00 92 1013.0
20260904103025 18 319 0.0 0.0 0.00 0.03 0.00 91 1013.0
20260904101525 18 319 0.0 0.0 0.00 0.03 0.00 92 1013.0
20260904100023 18 319 0.0 0.0 0.00 0.03 0.00 91 1012.8
20260904094522 18 319 0.0 0.0 0.00 0.03 0.00 92 1012.8
20260904093021 18 319 0.0 0.0 0.00 0.03 0.00 92 1012.9
20260904091521 18 319 0.0 0.0 0.00 0.03 0.00 92 1012.8
20260904090023 18 319 0.0 0.0 0.00 0.08 0.03 92 1012.8
20260904084519 19 319 0.0 0.0 0.00 0.08 0.03 92 1012.7
20260904083020 18 319 0.0 0.0 0.00 0.08 0.03 92 1012.6
20260904081519 18 319 0.0 0.0 0.00 0.08 0.03 92 1012.4
20260904080020 18 319 0.0 3.2 0.00 0.13 0.03 92 1012.4
20260904074522 18 319 0.0 0.0 0.00 0.13 0.03 92 1012.4
20260904073022 18 319 0.0 0.0 0.00 0.13 0.03 92 1012.5
20260904071530 18 319 0.0 0.0 0.00 0.13 0.03 92 1012.4
20260904070019 18 319 0.0 0.0 0.00 0.28 0.03 92 1012.1
20260904064516 18 319 0.0 0.0 0.00 0.28 0.03 92 1011.8
20260904063022 19 319 0.0 0.0 0.00 0.28 0.03 92 1011.5
20260904061519 19 319 0.0 0.0 0.00 0.28 0.03 91 1011.7
20260904060017 19 319 0.0 0.0 0.00 0.30 0.03 91 1011.9
20260904054516 19 319 0.0 0.0 0.00 0.30 0.03 91 1011.9
20260904053016 19 319 0.0 0.0 0.00 0.30 0.03 90 1012.1
20260904051515 20 319 0.0 0.0 0.00 0.30 0.03 90 1012.2
20260904050015 20 319 0.0 0.0 0.00 0.69 0.03 89 1012.2
20260904044530 20 319 0.0 0.0 0.00 0.69 0.03 88 1012.2
20260904043014 20 319 0.0 1.6 0.00 0.69 0.03 88 1012.0
20260904041515 20 319 0.0 4.8 0.00 0.69 0.03 88 1012.1
20260904040014 21 323 0.0 0.0 0.00 0.71 0.03 88 1012.1
20260904034513 21 323 0.0 3.2 0.00 0.71 0.03 87 1012.1
20260904033013 21 323 0.0 4.8 0.00 0.71 0.03 87 1012.2
20260904031515 21 323 0.0 0.0 0.00 0.71 0.03 86 1012.6
20260904030016 21 323 0.0 3.2 0.00 0.71 0.03 87 1012.3
20260904024515 21 325 0.0 0.0 0.00 0.71 0.03 88 1012.4
20260904023012 21 325 0.0 0.0 0.00 0.71 0.03 89 1011.7
20260904021517 21 325 0.0 0.0 0.00 1.35 0.03 90 1011.9
20260904020012 21 325 0.0 0.0 0.00 1.35 0.03 89 1012.2
20260904014518 21 325 0.0 0.0 0.00 1.35 0.03 88 1012.2
20260904013011 21 325 0.0 0.0 0.00 1.35 0.03 88 1012.3
20260904011524 22 325 0.0 0.0 0.00 1.35 0.03 87 1012.4
20260904010013 22 325 0.0 0.0 0.00 1.35 0.03 84 1012.4
20260904004510 22 325 0.0 0.0 0.00 1.35 0.03 84 1012.3
20260904003009 22 325 0.0 0.0 0.00 1.35 0.03 86 1012.2
20260904001510 22 325 0.0 0.0 0.00 1.35 0.03 84 1012.5
20260904000009 22 325 0.0 0.0 0.00 1.35 0.03 85 1012.2
20260903234509 23 325 0.0 0.0 0.00 1.35 0.03 83 1012.1
20260903233009 23 325 0.0 0.0 0.00 1.35 0.03 79 1012.1
20260903231510 23 325 0.0 0.0 0.00 1.35 0.03 80 1012.3
20260903230010 24 325 0.0 0.0 0.00 1.35 0.03 80 1012.4
20260903224521 25 325 0.0 0.0 0.00 1.35 0.03 79 1012.5
20260903223007 25 325 0.0 0.0 0.00 1.35 0.03 79 1012.2
20260903221510 25 325 3.2 9.7 0.00 1.35 0.03 78 1011.7
20260903220012 26 323 3.2 16.1 0.00 1.35 0.03 77 1011.4
20260903214507 27 313 3.2 8.0 0.00 1.35 0.03 70 1011.2
20260903213011 28 294 0.0 8.0 0.00 1.35 0.03 67 1011.1
20260903211515 28 294 3.2 14.5 0.00 1.35 0.03 64 1011.2
20260903210006 30 317 6.4 9.7 0.00 1.35 0.03 63 1011.1
20260903204506 29 312 0.0 11.3 0.00 1.35 0.03 65 1011.1
20260903203004 29 333 3.2 14.5 0.00 1.35 0.03 66 1011.2
20260903201505 28 299 0.0 8.0 0.00 1.35 0.03 65 1011.3
20260903200003 29 290 3.2 8.0 0.00 1.35 0.03 61 1011.6
20260903194502 30 246 0.0 14.5 0.00 1.35 0.03 59 1011.7
20260903193101 30 306 4.8 12.9 0.00 1.35 0.03 59 1011.7
20260903191600 30 309 8.0 14.5 0.00 1.35 0.03 57 1011.8
20260903190100 30 301 3.2 14.5 0.00 1.37 0.03 58 1012.0
20260903184603 30 279 4.8 16.1 0.00 1.37 0.03 58 1012.1
20260903183054 29 148 1.6 12.9 0.00 1.37 0.03 61 1012.2
20260903181552 28 308 0.0 6.4 0.00 1.37 0.03 64 1012.3
20260903180100 28 266 0.0 9.7 0.00 1.37 0.03 67 1012.6
20260903174605 28 327 0.0 6.4 0.00 1.37 0.03 66 1012.7
20260903173044 28 325 3.2 12.9 0.00 1.37 0.03 67 1013.0
20260903171541 27 311 3.2 14.5 0.00 1.37 0.03 69 1013.0
20260903170103 27 327 4.8 11.3 0.00 1.37 0.03 71 1013.0
20260903164548 27 322 1.6 16.1 0.00 1.37 0.03 71 1013.2
20260903163039 27 305 3.2 9.7 0.00 1.37 0.03 70 1013.5
20260903161536 26 309 3.2 9.7 0.00 1.37 0.03 72 1013.7
20260903160034 25 294 3.2 11.3 0.00 1.37 0.03 75 1013.9
20260903154532 25 296 0.0 8.0 0.00 1.37 0.03 76 1014.0
20260903153027 24 248 0.0 14.5 0.00 1.37 0.03 78 1014.1
20260903151527 24 308 3.2 9.7 0.00 1.37 0.03 77 1014.3
20260903150028 23 320 3.2 11.3 0.00 1.40 0.03 79 1014.5
20260903144524 23 312 3.2 11.3 0.00 1.40 0.03 80 1014.1
20260903143023 23 306 4.8 11.3 0.00 1.40 0.03 81 1014.1
20260903141522 22 297 0.0 8.0 0.00 1.40 0.03 84 1014.0
20260903140017 22 46 0.0 3.2 0.00 1.73 0.03 86 1014.2
20260903134512 21 169 0.0 11.3 0.00 1.73 0.03 90 1014.2